SCP
4 4 4 3 3 3 4 5 4 2 2 2 1 1 1 1 1 1 1 1 1 1 2 2 1 1 0 0 0 0 0 0 0 0 0 0 0 0 1 1 1 1 1
5 5 4 3 3 4 5 4 3 2 2 2 2 1 1 1 1 1 1 1 1 1 1 1 1 1 0 0 0 0 0 0 0 0 0 0 0 0 1 1 1 1 1
5 5 5 4 4 4 4 4 3 2 2 2 2 2 2 2 1 1 1 1 1 1 1 1 1 1 1 0 0 0 0 0 0 0 1 0 0 0 1 1 1 1 1
6 6 6 6 5 4 4 3 3 3 3 2 2 2 2 2 1 1 1 1 1 1 1 1 1 1 1 1 1 0 0 0 0 1 1 1 1 0 1 1 1 1 1
5 6 7 8 6 5 4 4 3 3 3 3 2 2 2 2 1 1 1 1 1 1 1 1 1 1 1 1 1 1 0 0 0 0 1 1 1 1 1 1 1 1 1
5 7 8 7 6 5 4 4 3 3 3 3 3 3 2 2 2 2 2 1 1 1 1 1 1 1 1 1 1 1 1 1 1 1 1 1 1 1 1 1 1 1 1
6 6 6 5 4 4 3 3 3 4 4 3 3 3 3 3 3 3 2 2 2 1 1 1 1 1 1 1 1 1 1 1 1 1 1 1 1 1 1 1 1 1 1
6 6 5 4 3 3 3 3 3 4 5 5 4 4 4 4 3 3 3 3 3 2 2 2 1 1 1 1 1 1 1 1 1 1 1 1 1 1 1 1 1 1 1
6 6 4 3 2 2 3 3 4 5 6 7 6 6 6 5 5 4 4 4 4 3 3 2 2 2 2 2 1 1 1 1 1 1 1 1 1 1 1 1 1 1 1
6 6 4 3 2 2 3 4 5 6 8 8 8 7 6 7 7 6 5 5 4 4 3 3 3 3 3 2 2 2 2 1 1 1 1 1 1 1 1 1 1 1 1
6 5 3 2 3 4 4 4 6 7 8 8 6 5 4 6 8 7 6 6 5 5 4 4 4 4 4 4 3 3 2 2 2 1 1 1 1 1 1 1 1 1 1
6 5 3 3 4 4 5 5 6 7 7 6 4 3 3 5 6 6 6 6 6 5 4 4 4 4 4 5 5 4 3 3 3 2 2 1 1 1 1 1 1 1 1
5 4 3 3 3 4 5 5 6 6 6 5 3 3 3 3 5 5 5 5 4 4 4 4 3 3 4 5 6 5 4 4 4 3 2 2 1 1 1 1 1 1 1
5 4 3 3 3 4 5 5 6 7 7 6 4 3 3 3 3 4 4 4 3 2 2 3 4 3 3 4 5 6 5 4 4 4 3 3 2 2 1 1 1 1 1
4 4 3 2 2 4 5 6 7 8 8 7 5 4 4 3 3 3 3 3 2 1 2 3 4 4 3 3 4 5 5 5 5 4 4 4 3 2 2 1 1 1 1
4 4 4 4 4 5 6 7 8 9 9 8 6 5 5 4 4 3 3 3 2 2 2 3 4 4 4 3 2 3 3 5 5 5 5 5 4 4 3 2 1 1 1
4 4 5 6 7 8 8 9 9 9 9 8 7 7 7 6 5 4 3 3 2 2 3 3 3 4 4 3 2 1 2 3 5 6 6 6 6 5 4 3 2 1 1
6 7 7 8 9 10 9 8 8 8 8 8 8 8 8 8 7 6 5 4 4 4 4 4 3 3 4 3 2 1 2 2 3 5 7 7 6 6 5 4 3 2 2
10 10 10 11 11 10 8 7 7 7 8 8 9 11 11 11 10 9 8 7 6 5 5 5 5 4 4 3 2 2 2 2 2 4 5 7 6 5 4 4 3 2 2
12 12 12 12 12 10 8 7 7 7 7 8 10 13 14 13 11 9 8 8 7 6 5 5 5 4 3 2 1 2 3 4 2 2 3 5 4 3 2 3 4 3 3
11 11 11 11 10 9 8 9 9 8 7 7 10 13 14 12 9 7 6 6 6 5 4 3 3 3 2 1 1 2 4 5 4 2 2 3 2 1 1 2 4 3 3
9 9 9 8 8 7 8 9 9 8 7 7 8 10 11 9 6 4 5 5 4 4 3 2 2 2 1 1 1 1 3 5 5 4 3 2 1 1 0 1 2 2 2
9 8 8 7 7 7 8 9 8 7 6 6 6 8 8 6 4 3 4 3 3 3 3 3 2 2 2 1 1 0 1 3 5 5 4 2 1 0 0 0 1 1 2
8 8 8 9 8 8 8 9 8 6 5 5 5 5 6 5 4 3 2 2 2 2 2 2 2 2 2 1 1 1 1 2 4 5 5 3 1 1 1 1 1 1 2
9 10 13 14 12 10 9 9 8 7 6 5 4 4 5 4 4 3 2 1 1 1 1 2 2 2 2 2 1 1 2 3 4 5 5 3 2 2 1 1 1 1 2
11 14 18 18 15 12 11 10 8 7 6 5 4 4 4 4 3 3 2 1 1 1 1 1 2 2 2 1 1 1 2 3 3 4 5 4 3 3 2 2 1 2 2
Wind_Speed
8 8 8 8 8 7 6 6 5 4 3 2 2 1 1 1 1 1 2 2 2 2 1 1 1 1 1 1 1 1 1 0 1 1 2 2 2 1 1 1 1 2 3
6 6 7 7 8 8 7 6 5 5 4 3 2 2 1 1 1 1 1 2 2 2 1 1 1 1 1 1 1 2 1 0 0 1 1 2 3 3 1 0 1 1 1
10 8 7 6 7 7 7 6 5 5 4 4 2 2 2 1 1 0 1 1 2 2 1 2 2 1 2 2 2 2 2 2 1 1 2 2 2 2 2 1 0 0 1
9 7 7 6 7 7 6 5 5 4 4 4 3 4 3 2 2 1 1 1 1 1 1 2 2 2 2 2 2 2 2 2 2 1 1 2 3 2 2 3 1 1 1
9 9 8 8 7 7 6 5 4 4 3 3 4 4 2 2 1 1 1 1 1 1 2 2 2 2 1 2 1 1 2 2 2 2 1 1 1 2 2 2 2 2 1
8 7 7 6 5 6 5 5 5 3 3 3 3 4 3 2 2 1 1 1 1 1 1 1 1 1 1 2 2 2 1 1 2 2 1 2 1 2 2 2 2 1 1
8 8 7 7 6 6 6 6 5 4 3 3 3 3 3 3 3 2 2 2 1 1 1 1 1 1 1 2 2 1 1 1 1 2 1 2 2 2 2 2 1 1 1
8 9 9 8 7 7 7 6 6 5 4 4 3 3 3 2 2 2 2 2 2 2 2 2 1 1 1 1 1 1 2 1 2 2 1 1 1 1 2 2 2 1 1
8 8 7 7 7 7 7 7 7 5 5 4 3 2 1 1 2 2 2 2 2 2 2 2 2 1 1 1 1 1 1 1 1 1 1 1 1 1 1 1 2 3 2
6 6 6 6 6 6 6 7 7 6 5 5 3 3 2 1 2 2 2 2 2 2 2 2 2 2 1 1 1 1 1 1 1 1 1 1 0 0 0 1 1 2 3
8 8 7 6 6 5 5 6 6 5 4 4 3 3 2 2 2 1 2 2 1 1 2 2 2 2 2 2 2 2 1 1 1 1 1 1 1 0 0 1 1 1 2
6 6 7 7 7 7 6 5 5 5 5 5 4 3 2 2 2 2 2 1 1 1 2 2 1 2 2 2 2 2 1 1 2 2 1 1 1 0 0 1 1 1 1
6 5 5 5 6 6 6 6 5 5 5 4 4 3 2 2 2 3 2 2 2 1 1 1 2 2 2 2 2 2 2 2 2 2 2 2 2 1 1 1 1 1 1
7 6 5 5 5 5 6 6 5 5 5 4 5 4 4 4 4 3 2 2 2 2 2 1 2 2 2 2 2 2 2 2 2 3 3 3 3 4 3 2 2 2 1
5 6 5 5 5 4 4 4 5 5 5 5 4 4 3 3 3 2 2 2 2 3 2 2 2 2 2 2 2 2 3 3 3 3 3 4 4 5 4 3 3 3 2
6 6 5 5 5 5 4 4 3 4 4 5 4 3 3 3 3 3 2 2 2 3 2 2 3 2 3 2 3 3 3 3 3 4 4 4 4 4 4 4 5 5 5
5 6 6 5 5 6 6 5 3 4 4 4 4 4 4 3 3 3 3 3 3 2 2 3 3 3 3 4 3 4 3 3 3 4 3 3 2 2 3 3 4 5 6
6 6 5 4 3 4 4 4 3 3 4 3 4 4 3 3 3 3 3 3 3 3 3 3 3 3 4 3 3 3 2 3 3 3 4 4 3 3 4 3 2 3 4
7 6 6 5 4 4 4 4 3 3 3 3 4 4 4 4 3 4 4 4 3 3 3 3 3 4 4 4 4 3 2 2 3 3 3 3 4 5 5 4 3 3 3
5 5 5 4 4 3 3 4 3 3 3 4 4 4 4 4 4 4 4 3 3 3 2 3 3 4 4 4 4 4 2 2 2 2 3 4 5 5 6 5 5 5 4
5 5 5 4 4 4 4 4 3 4 4 4 3 3 4 4 4 3 2 2 2 2 2 2 3 3 3 4 5 4 3 3 3 2 3 3 4 5 6 5 5 7 5
4 5 5 4 4 4 5 4 5 5 3 2 2 3 3 3 2 2 2 2 3 2 1 2 3 2 2 3 4 4 4 4 3 3 3 3 4 5 5 4 5 6 4
5 4 5 5 4 4 5 5 5 3 3 2 2 2 2 2 2 2 2 2 2 2 2 2 2 3 2 2 3 3 3 3 2 2 3 3 4 4 4 4 5 4 3
4 4 4 4 3 4 4 4 4 3 3 3 2 2 1 1 1 1 2 2 3 3 2 2 3 3 2 2 1 1 1 1 1 2 2 2 2 2 3 2 2 2 3
4 4 5 4 4 3 4 4 4 3 3 2 2 2 2 2 2 2 2 3 3 4 4 4 3 3 3 5 5 3 2 2 3 1 0 0 0 1 1 1 1 1 2
4 4 4 3 3 2 3 3 3 3 3 3 2 2 2 2 2 2 2 3 3 4 5 6 6 5 6 6 5 5 4 4 4 2 1 2 2 2 2 2 2 2 2
Wind_Direction
172 163 162 163 155 153 152 155 151 158 145 127 127 131 153 183 193 193 180 170 177 174 147 136 150 143 137 159 149 132 82 18 51 54 0 344 330 309 249 216 207 211 209
161 166 164 162 158 161 162 161 160 162 161 159 156 157 154 184 195 217 200 186 179 183 160 157 168 158 138 109 113 120 118 261 155 129 80 355 344 337 317 283 195 200 206
166 168 165 162 159 165 171 170 166 164 168 159 129 101 67 33 25 331 248 219 189 177 166 156 157 159 148 167 182 165 156 202 248 177 148 154 241 303 315 296 256 205 227
164 161 158 159 164 169 166 163 164 162 163 156 150 151 160 186 215 217 217 235 200 178 164 150 153 160 156 177 214 178 177 175 226 266 216 188 178 183 296 318 331 328 262
159 161 165 169 165 160 156 156 151 158 162 158 162 162 174 194 201 196 185 204 223 185 162 150 145 151 155 177 196 187 190 189 198 209 218 221 219 185 185 271 305 326 313
158 159 164 158 156 153 154 156 152 158 160 160 160 165 171 170 153 166 179 197 204 209 180 147 149 166 167 185 195 190 186 199 197 206 195 183 190 199 189 219 248 274 298
159 154 159 161 163 162 164 157 153 163 170 164 170 174 175 169 171 180 185 180 183 197 216 181 175 189 200 197 184 175 198 196 186 204 218 213 215 194 180 178 212 245 282
160 165 171 171 171 173 172 162 160 173 179 178 184 185 177 175 186 192 177 183 196 206 206 191 191 204 199 192 176 188 213 196 205 218 207 211 240 195 183 179 169 189 303
163 169 172 170 174 176 177 176 171 174 175 178 172 165 168 178 197 192 171 181 201 201 190 189 194 208 202 188 166 186 219 184 203 219 206 210 231 199 190 171 170 168 190
159 165 172 174 175 175 175 173 173 178 180 176 181 179 179 197 216 181 191 203 212 200 178 189 196 201 197 187 172 188 201 156 212 196 177 225 246 234 158 162 157 161 167
164 167 169 166 164 164 168 173 174 172 173 174 179 178 182 202 202 193 208 207 210 198 203 193 185 194 203 201 187 203 188 189 236 250 194 237 230 162 190 141 134 136 140
153 157 162 160 160 164 166 173 179 176 182 180 174 181 185 188 200 217 223 199 198 203 210 205 190 205 211 208 191 208 213 209 227 247 220 233 225 194 225 162 167 175 167
142 138 143 153 164 169 168 175 179 177 176 166 168 180 179 186 217 222 223 212 197 201 211 195 209 213 216 218 221 216 229 232 227 224 214 220 187 216 218 185 189 194 169
150 147 150 156 167 174 174 175 181 174 167 161 169 185 193 195 213 218 215 212 209 212 222 222 228 213 212 219 214 211 231 241 243 233 221 215 202 206 202 197 194 180 159
152 156 159 165 168 166 168 173 177 174 166 163 175 195 204 202 201 203 212 210 220 237 230 214 223 222 218 225 211 210 222 226 243 250 241 230 217 201 195 193 188 174 170
161 159 166 163 164 162 162 163 168 172 164 169 187 192 191 202 205 205 208 211 230 235 229 224 221 228 236 239 218 210 222 221 232 246 249 244 221 214 209 208 198 184 181
169 170 171 170 170 166 160 162 168 162 162 175 184 184 187 204 212 208 208 223 230 226 233 239 220 225 239 238 237 228 214 223 231 233 238 243 229 209 210 222 220 216 212
176 180 176 167 167 167 162 159 150 149 161 177 188 188 186 207 222 215 219 225 225 219 227 238 234 235 246 241 242 241 227 231 240 233 225 224 231 219 201 201 211 219 224
177 176 176 168 157 164 163 144 144 152 161 181 195 198 196 207 220 223 225 223 219 229 229 229 228 236 250 237 227 218 216 241 253 249 237 227 225 223 202 185 197 222 248
165 161 159 147 152 162 155 144 161 169 191 202 205 205 202 208 218 226 222 218 216 228 233 245 241 237 238 234 225 213 204 232 253 264 258 247 233 223 202 191 191 210 232
159 151 148 160 175 173 157 158 174 199 213 211 209 210 212 214 212 214 208 199 196 206 244 264 266 247 233 231 226 218 205 215 232 249 266 262 234 220 212 203 204 215 212
148 153 156 172 184 178 168 178 204 214 208 202 207 219 222 221 212 194 210 192 182 187 237 267 284 273 249 233 229 225 221 215 211 233 246 253 247 232 222 213 221 214 201
164 166 166 170 188 186 177 193 222 209 194 198 216 230 225 226 205 190 198 204 200 198 216 213 246 276 273 258 239 218 224 225 220 240 255 262 257 245 234 232 220 201 187
169 165 159 170 202 206 194 208 215 199 186 200 216 207 194 222 223 206 200 209 209 205 211 215 227 251 267 265 262 241 226 224 244 275 282 278 263 251 245 241 227 206 194
176 172 174 185 205 209 208 208 207 188 187 203 214 208 200 201 216 226 224 224 227 209 203 215 213 217 244 247 232 211 209 205 215 220 269 347 307 276 272 246 228 207 194
179 176 180 186 204 210 231 232 212 194 191 206 214 211 208 207 208 225 273 270 244 245 230 221 219 229 232 235 226 222 221 216 192 164 202 223 224 234 231 220 220 212 210